Regional Weather Roundup
Issued by NWS Northern Indiana

Home | Current Version | Previous Version | Text Only | Print | Product List | Glossary Off
Versions: 1 2 3 4 5 6 7 8 9 10 11 12 13 14 15 16 17 18 19 20 21 22 23 24 25 26 27 28 29 30 31 32 33 34 35 36 37 38 39 40 41 42 43 44 45 46 47 48 49 50

889
ASUS43 KIWX 251710
RWRIWX

KIWX WEATHER ROUNDUP
NATIONAL WEATHER SERVICE NORTHERN INDIANA
100 PM EDT SUN SEP 25 2016

NOTE: "FAIR" INDICATES FEW OR NO CLOUDS BELOW 12,000 FEET WITH NO
SIGNIFICANT WEATHER AND/OR OBSTRUCTIONS TO VISIBILITY.

* THESE STATIONS ARE NOT UNDER NWS QUALITY CONTROL. THEY ALSO MAY NOT
  REPORT WEATHER SUCH AS PRECIPITATION OR FOG.

INZ001>027-251800-
NORTHERN INDIANA

CITY           SKY/WX    TMP DP  RH WIND       PRES   REMARKS
GARY*          MOSUNNY   79  64  61 SE9       30.07F
VALPARAISO     MOSUNNY   79  63  57 S9        30.09F
MICHIGAN CITY* SUNNY     77  61  57 MISG      30.09F
LAPORTE*       MOSUNNY   78  62  56 S7        30.10F
KNOX*          MOSUNNY   77  34  20 SE5       30.09F
SOUTH BEND     MOSUNNY   75  59  57 SE9       30.10F
ELKHART*       SUNNY    N/A N/A N/A E6        30.12F
GOSHEN         PTSUNNY   76  56  49 SE9       30.12F
MONTICELLO*    SUNNY     80  61  52 S7        30.08F
LOGANSPORT*    SUNNY     81  63  54 SE5       30.10F
ROCHESTER*     SUNNY     81  64  57 SE6       30.11F
WARSAW*        SUNNY     73  52  46 S6        30.12F
ANGOLA*        SUNNY     73  66  78 SE7       30.14F
FORT WAYNE     PTSUNNY   76  59  55 CALM      30.13F
HUNTINGTON*    SUNNY    N/A N/A N/A SE5       30.12F
PERU/GRISSOM   SUNNY     80  65  59 S5        30.09F
MARION*        SUNNY     79  62  56 SE6       30.12F

$$
INZ028>050-251800-
CENTRAL INDIANA

CITY           SKY/WX    TMP DP  RH WIND       PRES   REMARKS
LAFAYETTE      SUNNY     82  68  62 CALM      30.07F
MUNCIE*        SUNNY     81  62  52 W5        30.12F
INDIANAPOLIS   SUNNY     80  67  64 VRB5      30.10F

$$
MIZ043>046-050>051-056>058-064>065-071>073-077>080-251800-
SOUTHWEST LOWER MICHIGAN

CITY           SKY/WX    TMP DP  RH WIND       PRES   REMARKS
BATTLE CREEK   SUNNY     70  50  49 SE7       30.15F
BENTON HARBOR  SUNNY     75  56  51 SE12      30.09F
COLDWATER*     SUNNY     71  44  37 SE5       30.15F
HILLSDALE*     PTSUNNY   70  41  35 SE3       30.16F
HOLLAND        SUNNY     71  57  61 SE12      30.11F
GRAND RAPIDS   CLOUDY    69  54  58 SE10      30.13F
KALAMAZOO      MOSUNNY   71  51  49 SE7       30.14F
STURGIS*       MOSUNNY   74  51  44 S6        30.13F
THREE RIVERS*  FAIR      73  52  46 SE6       30.14S

$$
OHZ001>008-015>018-024>025-251800-
NORTHWEST OHIO

CITY           SKY/WX    TMP DP  RH WIND       PRES   REMARKS
WAUSEON*       FAIR      73  50  43 VRB7      30.16F
DEFIANCE       SUNNY     73  52  47 E6        30.15F
FINDLAY        SUNNY     74  49  41 CALM      30.14F
TOLEDO EXPRESS SUNNY     71  50  47 CALM      30.17F
TOLEDO METCALF SUNNY     72  50  45 VRB7      30.17F
LIMA           SUNNY     75  58  55 CALM      30.15F

$$
AND FOR LAKE MICHIGAN COASTAL AND OPEN LAKE BUOY OBSERVATIONS

STATION/POSITION TEMP    WIND        PRES    VSBY  WAVE
                 AIR SEA DIR/SP/G                  HT/PER
                 (F)     (DEG/KT/KT) (MB)    (MI)  (FT/S)
CALUMET HARBOR    77     150/  7/  9 1017.3F
MICHIGAN CITY     74     130/ 12/ 14   N/A
BURNS HARBOR      77     160/  8/ 13 1018.6F
SAINT JOSEPH      71     180/  3/  7 1019.6
SOUTH LAKE BUOY   69 72  130/ 19/ 21 1017.3F         4/ 5
4 MI NW BRIDGMAN  71 68  130/ 10/ 12 1018.4          1
MICHIGAN CITY     71 67  150/  6/  8   N/A           1

$$
&&




USA.gov is the U.S. government's official web portal to all federal, state and local government web resources and services.